| time (UTC) | temp F | wind direction | speed knots | gust knots | rain 1hr in | rain 24hr in | rain mn in | humidity % | barometer mb |
| 20260505230026 | 84 | 126 | 0.9 | 5.2 | 0.00 | 0.00 | 0.00 | 72 | 1004.2 |
| 20260505225526 | 84 | 204 | 0.9 | 5.2 | 0.00 | 0.00 | 0.00 | 72 | 1004.2 |
| 20260505225026 | 84 | 248 | 1.7 | 7.0 | 0.00 | 0.00 | 0.00 | 72 | 1004.2 |
| 20260505224026 | 85 | 171 | 1.7 | 7.0 | 0.00 | 0.00 | 0.00 | 72 | 1004.2 |
| 20260505223527 | 85 | 193 | 4.3 | 4.3 | 0.00 | 0.00 | 0.00 | 72 | 1004.2 |
| 20260505223026 | 85 | 209 | 2.6 | 4.3 | 0.00 | 0.00 | 0.00 | 72 | 1004.3 |
| 20260505222526 | 85 | 251 | 2.6 | 7.0 | 0.00 | 0.00 | 0.00 | 72 | 1004.3 |
| 20260505222026 | 85 | 149 | 4.3 | 7.0 | 0.00 | 0.00 | 0.00 | 72 | 1004.2 |
| 20260505220526 | 85 | 121 | 0.9 | 4.3 | 0.00 | 0.00 | 0.00 | 72 | 1004.3 |
| 20260505220026 | 85 | 247 | 3.5 | 4.3 | 0.00 | 0.00 | 0.00 | 72 | 1004.5 |
| 20260505215026 | 85 | 185 | 3.5 | 7.0 | 0.00 | 0.00 | 0.00 | 72 | 1004.6 |
| 20260505214526 | 85 | 294 | 0.9 | 5.2 | 0.00 | 0.00 | 0.00 | 72 | 1004.8 |
| 20260505214026 | 85 | 209 | 3.5 | 5.2 | 0.00 | 0.00 | 0.00 | 72 | 1004.9 |
| 20260505213526 | 85 | 208 | 3.5 | 6.1 | 0.00 | 0.00 | 0.00 | 72 | 1004.8 |
| 20260505212525 | 85 | 219 | 2.6 | 7.8 | 0.00 | 0.00 | 0.00 | 73 | 1004.8 |
| 20260505212025 | 85 | 258 | 0.9 | 7.8 | 0.00 | 0.00 | 0.00 | 73 | 1004.8 |
| 20260505211525 | 85 | 194 | 1.7 | 7.8 | 0.00 | 0.00 | 0.00 | 73 | 1004.8 |
| 20260505211025 | 85 | 119 | 2.6 | 5.2 | 0.00 | 0.00 | 0.00 | 73 | 1004.9 |
| 20260505210026 | 84 | 150 | 1.7 | 6.1 | 0.00 | 0.00 | 0.00 | 74 | 1005.1 |
| 20260505205525 | 84 | 262 | 2.6 | 7.0 | 0.00 | 0.00 | 0.00 | 74 | 1005.1 |
| 20260505205025 | 83 | 207 | 4.3 | 7.0 | 0.00 | 0.00 | 0.00 | 75 | 1005.3 |
| 20260505204525 | 83 | 296 | 0.9 | 6.1 | 0.00 | 0.00 | 0.00 | 74 | 1005.4 |
| 20260505204025 | 83 | 211 | 2.6 | 9.6 | 0.00 | 0.00 | 0.00 | 75 | 1005.5 |
| 20260505203525 | 83 | 281 | 1.7 | 9.6 | 0.00 | 0.00 | 0.00 | 75 | 1005.6 |
| 20260505203025 | 83 | 163 | 0.9 | 6.1 | 0.00 | 0.00 | 0.00 | 75 | 1005.7 |
| 20260505202525 | 82 | 199 | 0.0 | 8.7 | 0.00 | 0.00 | 0.00 | 76 | 1005.8 |
| 20260505202025 | 82 | 175 | 1.7 | 8.7 | 0.00 | 0.00 | 0.00 | 76 | 1005.8 |
| 20260505201025 | 82 | 91 | 0.0 | 6.1 | 0.00 | 0.00 | 0.00 | 76 | 1005.9 |
| 20260505200525 | 82 | 138 | 4.3 | 6.1 | 0.00 | 0.00 | 0.00 | 76 | 1006.0 |
| 20260505200025 | 82 | 231 | 3.5 | 5.2 | 0.00 | 0.00 | 0.00 | 76 | 1005.9 |
| 20260505195525 | 82 | 217 | 1.7 | 6.1 | 0.00 | 0.00 | 0.00 | 76 | 1006.2 |
| 20260505195025 | 82 | 260 | 0.9 | 6.1 | 0.00 | 0.00 | 0.00 | 76 | 1006.2 |
| 20260505194525 | 82 | 198 | 1.7 | 4.3 | 0.00 | 0.00 | 0.00 | 77 | 1006.3 |
| 20260505194025 | 81 | 241 | 2.6 | 5.2 | 0.00 | 0.00 | 0.00 | 77 | 1006.3 |
| 20260505193524 | 81 | 234 | 1.7 | 5.2 | 0.00 | 0.00 | 0.00 | 77 | 1006.3 |
| 20260505193024 | 81 | 97 | 0.9 | 7.0 | 0.00 | 0.00 | 0.00 | 77 | 1006.3 |
| 20260505192024 | 81 | 84 | 0.9 | 7.0 | 0.00 | 0.00 | 0.00 | 78 | 1006.5 |
| 20260505191024 | 80 | 105 | 1.7 | 6.1 | 0.00 | 0.00 | 0.00 | 78 | 1006.5 |
| 20260505190525 | 80 | 209 | 0.9 | 8.7 | 0.00 | 0.00 | 0.00 | 78 | 1006.6 |
| 20260505190024 | 80 | 96 | 1.7 | 8.7 | 0.00 | 0.00 | 0.00 | 78 | 1006.6 |
| 20260505185024 | 79 | 190 | 1.7 | 7.0 | 0.00 | 0.00 | 0.00 | 78 | 1006.8 |
| 20260505184524 | 79 | 223 | 2.6 | 4.3 | 0.00 | 0.00 | 0.00 | 79 | 1006.9 |
| 20260505184024 | 79 | 215 | 0.0 | 2.6 | 0.00 | 0.00 | 0.00 | 79 | 1007.0 |
| 20260505183524 | 79 | 183 | 1.7 | 6.1 | 0.00 | 0.00 | 0.00 | 79 | 1007.0 |
| 20260505183024 | 79 | 260 | 5.2 | 6.1 | 0.00 | 0.00 | 0.00 | 79 | 1007.0 |
| 20260505182524 | 79 | 239 | 2.6 | 6.1 | 0.00 | 0.00 | 0.00 | 79 | 1007.1 |
| 20260505182024 | 78 | 237 | 0.9 | 4.3 | 0.00 | 0.00 | 0.00 | 80 | 1007.1 |
| 20260505181524 | 78 | 195 | 0.0 | 5.2 | 0.00 | 0.00 | 0.00 | 79 | 1007.2 |
| 20260505181024 | 78 | 329 | 1.7 | 5.2 | 0.00 | 0.00 | 0.00 | 80 | 1007.3 |
| 20260505180524 | 78 | 326 | 1.7 | 5.2 | 0.00 | 0.00 | 0.00 | 80 | 1007.3 |
| 20260505180024 | 78 | 216 | 0.9 | 6.1 | 0.00 | 0.00 | 0.00 | 80 | 1007.3 |
| 20260505175523 | 77 | 215 | 6.1 | 6.1 | 0.00 | 0.00 | 0.00 | 80 | 1007.3 |
| 20260505175024 | 77 | 195 | 4.3 | 5.2 | 0.00 | 0.00 | 0.00 | 80 | 1007.3 |
| 20260505174524 | 77 | 196 | 4.3 | 5.2 | 0.00 | 0.00 | 0.00 | 80 | 1007.4 |
| 20260505174024 | 77 | 220 | 1.7 | 3.5 | 0.00 | 0.00 | 0.00 | 80 | 1007.4 |
| 20260505173524 | 76 | 275 | 3.5 | 3.5 | 0.00 | 0.00 | 0.00 | 80 | 1007.5 |
| 20260505173023 | 76 | 299 | 1.7 | 3.5 | 0.00 | 0.00 | 0.00 | 81 | 1007.6 |
| 20260505172523 | 76 | 151 | 1.7 | 3.5 | 0.00 | 0.00 | 0.00 | 80 | 1007.6 |
| 20260505172023 | 76 | 227 | 1.7 | 4.3 | 0.00 | 0.00 | 0.00 | 80 | 1007.6 |
| 20260505171523 | 76 | 282 | 0.9 | 7.0 | 0.00 | 0.00 | 0.00 | 80 | 1007.5 |
| 20260505171023 | 76 | 296 | 2.6 | 7.0 | 0.00 | 0.00 | 0.00 | 80 | 1007.7 |
| 20260505170523 | 76 | 293 | 2.6 | 6.1 | 0.00 | 0.00 | 0.00 | 80 | 1007.7 |
| 20260505165523 | 76 | 296 | 1.7 | 5.2 | 0.00 | 0.00 | 0.00 | 81 | 1007.6 |
| 20260505165023 | 76 | 213 | 1.7 | 5.2 | 0.00 | 0.00 | 0.00 | 81 | 1007.6 |
| 20260505164523 | 75 | 140 | 3.5 | 5.2 | 0.00 | 0.00 | 0.00 | 81 | 1007.6 |
| 20260505163523 | 75 | 180 | 0.9 | 4.3 | 0.00 | 0.00 | 0.00 | 81 | 1007.7 |
| 20260505163023 | 75 | 172 | 2.6 | 7.0 | 0.00 | 0.00 | 0.00 | 81 | 1007.7 |
| 20260505162523 | 75 | 105 | 5.2 | 7.0 | 0.00 | 0.00 | 0.00 | 81 | 1007.7 |
| 20260505161523 | 74 | 110 | 1.7 | 3.5 | 0.00 | 0.00 | 0.00 | 81 | 1007.8 |
| 20260505153022 | 73 | 261 | 0.9 | 4.3 | 0.00 | 0.00 | 0.00 | 81 | 1007.9 |
| 20260505152522 | 73 | 103 | 1.7 | 4.3 | 0.00 | 0.00 | 0.00 | 82 | 1007.9 |
| 20260505152023 | 73 | 206 | 2.6 | 4.3 | 0.00 | 0.00 | 0.00 | 82 | 1007.7 |
| 20260505151522 | 73 | 209 | 0.9 | 4.3 | 0.00 | 0.00 | 0.00 | 82 | 1007.6 |
| 20260505151021 | 73 | 177 | 0.9 | 5.2 | 0.00 | 0.00 | 0.00 | 82 | 1007.6 |
| 20260505150521 | 73 | 199 | 0.9 | 5.2 | 0.00 | 0.00 | 0.00 | 82 | 1007.5 |
| 20260505140521 | 73 | 254 | 2.6 | 7.0 | 0.00 | 0.00 | 0.00 | 82 | 1007.3 |
| 20260505125019 | 72 | 111 | 2.6 | 5.2 | 0.00 | 0.00 | 0.00 | 82 | 1006.7 |
| 20260505124519 | 72 | 115 | 1.7 | 3.5 | 0.00 | 0.00 | 0.00 | 82 | 1006.7 |
| 20260505124020 | 72 | 212 | 1.7 | 4.3 | 0.00 | 0.00 | 0.00 | 82 | 1006.7 |
| 20260505123520 | 72 | 240 | 0.9 | 6.1 | 0.00 | 0.00 | 0.00 | 82 | 1006.6 |
| 20260505123019 | 72 | 219 | 4.3 | 6.1 | 0.00 | 0.00 | 0.00 | 82 | 1006.5 |
| 20260505122519 | 72 | 142 | 2.6 | 6.1 | 0.00 | 0.00 | 0.00 | 82 | 1006.4 |
| 20260505122019 | 72 | 180 | 1.7 | 6.1 | 0.00 | 0.00 | 0.00 | 82 | 1006.3 |
| 20260505121519 | 72 | 234 | 1.7 | 5.2 | 0.00 | 0.00 | 0.00 | 82 | 1006.4 |
| 20260505121019 | 72 | 128 | 1.7 | 6.1 | 0.00 | 0.00 | 0.00 | 82 | 1006.4 |
| 20260505120519 | 72 | 171 | 3.5 | 6.1 | 0.00 | 0.00 | 0.00 | 82 | 1006.3 |
| 20260505120019 | 72 | 164 | 0.9 | 5.2 | 0.00 | 0.00 | 0.00 | 82 | 1006.4 |
| 20260505115519 | 72 | 260 | 1.7 | 7.0 | 0.00 | 0.00 | 0.00 | 82 | 1006.4 |
| 20260505115019 | 72 | 211 | 1.7 | 7.0 | 0.00 | 0.00 | 0.00 | 82 | 1006.3 |
| 20260505114519 | 72 | 215 | 2.6 | 11.3 | 0.00 | 0.00 | 0.00 | 82 | 1006.2 |
| 20260505114019 | 72 | 169 | 3.5 | 11.3 | 0.00 | 0.00 | 0.00 | 82 | 1006.1 |
| 20260505113519 | 72 | 228 | 3.5 | 5.2 | 0.00 | 0.00 | 0.00 | 82 | 1006.1 |
| 20260505113019 | 72 | 258 | 0.0 | 3.5 | 0.00 | 0.00 | 0.00 | 82 | 1006.3 |
| 20260505112519 | 72 | 241 | 1.7 | 6.1 | 0.00 | 0.00 | 0.00 | 82 | 1006.3 |
| 20260505112019 | 72 | 202 | 1.7 | 6.1 | 0.00 | 0.00 | 0.00 | 82 | 1006.2 |
| 20260505111519 | 72 | 217 | 3.5 | 6.1 | 0.00 | 0.00 | 0.00 | 82 | 1006.2 |
| 20260505111019 | 72 | 217 | 2.6 | 6.1 | 0.00 | 0.00 | 0.00 | 82 | 1006.3 |
| 20260505110519 | 72 | 197 | 1.7 | 7.8 | 0.00 | 0.00 | 0.00 | 82 | 1006.3 |
| 20260505101518 | 71 | 125 | 2.6 | 6.1 | 0.00 | 0.00 | 0.00 | 82 | 1006.4 |
| 20260505101018 | 71 | 182 | 2.6 | 7.0 | 0.00 | 0.00 | 0.00 | 82 | 1006.7 |
| 20260505100518 | 71 | 329 | 1.7 | 7.0 | 0.00 | 0.00 | 0.00 | 82 | 1006.7 |
| 20260505100019 | 71 | 217 | 1.7 | 6.1 | 0.00 | 0.00 | 0.00 | 82 | 1006.5 |
| 20260505095518 | 71 | 360 | 4.3 | 6.1 | 0.00 | 0.00 | 0.00 | 82 | 1006.4 |
| 20260505095018 | 71 | 140 | 1.7 | 3.5 | 0.00 | 0.00 | 0.00 | 82 | 1006.4 |
| 20260505094518 | 71 | 213 | 2.6 | 4.3 | 0.00 | 0.00 | 0.00 | 82 | 1006.6 |
| 20260505094018 | 71 | 202 | 3.5 | 5.2 | 0.00 | 0.00 | 0.00 | 82 | 1006.5 |
| 20260505093518 | 71 | 115 | 5.2 | 7.0 | 0.00 | 0.00 | 0.00 | 82 | 1006.5 |
| 20260505093018 | 71 | 311 | 0.9 | 7.0 | 0.00 | 0.00 | 0.00 | 82 | 1006.7 |
| 20260505092518 | 71 | 233 | 2.6 | 6.1 | 0.00 | 0.00 | 0.00 | 82 | 1006.6 |
| 20260505092018 | 71 | 207 | 1.7 | 7.0 | 0.00 | 0.00 | 0.00 | 81 | 1006.4 |
| 20260505091518 | 71 | 229 | 3.5 | 7.0 | 0.00 | 0.00 | 0.00 | 81 | 1006.5 |
| 20260505091018 | 71 | 217 | 2.6 | 5.2 | 0.00 | 0.00 | 0.00 | 81 | 1006.5 |
| 20260505090518 | 71 | 194 | 0.0 | 4.3 | 0.00 | 0.00 | 0.00 | 81 | 1006.7 |
| 20260505090017 | 71 | 173 | 1.7 | 5.2 | 0.00 | 0.00 | 0.00 | 81 | 1006.6 |
| 20260505085518 | 71 | 241 | 0.9 | 5.2 | 0.00 | 0.00 | 0.00 | 81 | 1006.8 |
| 20260505085018 | 71 | 221 | 2.6 | 3.5 | 0.00 | 0.00 | 0.00 | 81 | 1006.7 |
| 20260505084017 | 71 | 190 | 1.7 | 4.3 | 0.00 | 0.00 | 0.00 | 81 | 1006.6 |
| 20260505083518 | 71 | 287 | 1.7 | 4.3 | 0.00 | 0.00 | 0.00 | 81 | 1006.8 |
| 20260505083017 | 71 | 150 | 2.6 | 10.4 | 0.00 | 0.00 | 0.00 | 81 | 1007.0 |
| 20260505082517 | 71 | 326 | 3.5 | 10.4 | 0.00 | 0.00 | 0.00 | 81 | 1007.2 |
| 20260505082017 | 71 | 55 | 7.8 | 7.8 | 0.00 | 0.00 | 0.00 | 81 | 1007.1 |
| 20260505081517 | 71 | 177 | 4.3 | 11.3 | 0.00 | 0.00 | 0.00 | 81 | 1007.1 |
| 20260505081017 | 71 | 193 | 0.9 | 11.3 | 0.00 | 0.00 | 0.00 | 81 | 1007.2 |
| 20260505080517 | 72 | 187 | 0.9 | 3.5 | 0.00 | 0.00 | 0.00 | 81 | 1007.3 |
| 20260505075517 | 72 | 223 | 3.5 | 9.6 | 0.00 | 0.00 | 0.00 | 81 | 1007.3 |
| 20260505075017 | 72 | 168 | 3.5 | 9.6 | 0.00 | 0.00 | 0.00 | 81 | 1007.3 |
| 20260505074517 | 72 | 208 | 2.6 | 9.6 | 0.00 | 0.00 | 0.00 | 81 | 1007.3 |
| 20260505074017 | 72 | 302 | 1.7 | 7.8 | 0.00 | 0.00 | 0.00 | 81 | 1007.3 |
| 20260505073517 | 72 | 147 | 3.5 | 7.8 | 0.00 | 0.00 | 0.00 | 81 | 1007.4 |
| 20260505073017 | 72 | 192 | 2.6 | 8.7 | 0.00 | 0.00 | 0.00 | 81 | 1007.4 |
| 20260505072517 | 72 | 169 | 5.2 | 8.7 | 0.00 | 0.00 | 0.00 | 81 | 1007.5 |
| 20260505072017 | 72 | 215 | 0.9 | 4.3 | 0.00 | 0.00 | 0.00 | 81 | 1007.6 |
| 20260505071517 | 72 | 278 | 2.6 | 11.3 | 0.00 | 0.00 | 0.00 | 81 | 1007.7 |
| 20260505070516 | 72 | 180 | 0.9 | 9.6 | 0.00 | 0.00 | 0.00 | 81 | 1007.7 |
| 20260505065516 | 72 | 272 | 1.7 | 8.7 | 0.00 | 0.00 | 0.00 | 81 | 1007.8 |
| 20260505065016 | 72 | 298 | 2.6 | 9.6 | 0.00 | 0.00 | 0.00 | 81 | 1007.9 |
| 20260505064516 | 72 | 142 | 4.3 | 9.6 | 0.00 | 0.00 | 0.00 | 81 | 1008.0 |
| 20260505064016 | 72 | 165 | 3.5 | 8.7 | 0.00 | 0.00 | 0.00 | 81 | 1008.1 |
| 20260505063517 | 72 | 205 | 6.1 | 8.7 | 0.00 | 0.00 | 0.00 | 81 | 1008.1 |
| 20260505063016 | 72 | 254 | 3.5 | 8.7 | 0.00 | 0.00 | 0.00 | 81 | 1008.3 |
| 20260505062016 | 72 | 126 | 2.6 | 6.1 | 0.00 | 0.00 | 0.00 | 80 | 1008.4 |
| 20260505061516 | 72 | 165 | 3.5 | 7.0 | 0.00 | 0.00 | 0.00 | 80 | 1008.4 |
| 20260505061016 | 72 | 245 | 2.6 | 7.0 | 0.00 | 0.00 | 0.00 | 80 | 1008.5 |
| 20260505060516 | 72 | 159 | 1.7 | 5.2 | 0.00 | 0.00 | 0.00 | 80 | 1008.4 |
| 20260505060016 | 72 | 234 | 3.5 | 5.2 | 0.00 | 0.00 | 0.00 | 80 | 1008.6 |
| 20260505055516 | 72 | 191 | 1.7 | 5.2 | 0.00 | 0.00 | 0.00 | 80 | 1008.5 |
| 20260505055016 | 72 | 296 | 1.7 | 5.2 | 0.00 | 0.00 | 0.00 | 80 | 1008.5 |
| 20260505054516 | 72 | 117 | 0.0 | 5.2 | 0.00 | 0.00 | 0.00 | 80 | 1008.5 |
| 20260505054016 | 72 | 120 | 0.9 | 5.2 | 0.00 | 0.00 | 0.00 | 80 | 1008.4 |
| 20260505053016 | 72 | 230 | 1.7 | 5.2 | 0.00 | 0.00 | 0.00 | 80 | 1008.3 |
| 20260505052516 | 72 | 325 | 0.0 | 5.2 | 0.00 | 0.00 | 0.00 | 80 | 1008.3 |
| 20260505052016 | 72 | 121 | 2.6 | 8.7 | 0.00 | 0.00 | 0.00 | 80 | 1008.4 |
| 20260505051015 | 72 | 263 | 0.0 | 7.0 | 0.00 | 0.00 | 0.00 | 80 | 1008.2 |
| 20260505050516 | 72 | 157 | 7.0 | 11.3 | 0.00 | 0.00 | 0.00 | 80 | 1008.4 |
| 20260505041015 | 74 | 220 | 3.5 | 11.3 | 0.00 | 0.00 | 0.00 | 78 | 1008.2 |
| 20260505040515 | 74 | 194 | 6.1 | 7.8 | 0.00 | 0.00 | 0.00 | 77 | 1008.3 |
| 20260505040015 | 74 | 121 | 1.7 | 7.8 | 0.00 | 0.00 | 0.00 | 77 | 1008.3 |
| 20260505035515 | 74 | 51 | 1.7 | 7.8 | 0.00 | 0.00 | 0.00 | 77 | 1008.3 |
| 20260505035015 | 74 | 132 | 2.6 | 6.1 | 0.00 | 0.00 | 0.00 | 77 | 1008.2 |
| 20260505034515 | 74 | 132 | 6.1 | 6.1 | 0.00 | 0.00 | 0.00 | 77 | 1008.2 |
| 20260505033515 | 75 | 182 | 3.5 | 6.1 | 0.00 | 0.00 | 0.00 | 76 | 1008.2 |
| 20260505033014 | 75 | 149 | 0.0 | 3.5 | 0.00 | 0.00 | 0.00 | 76 | 1008.3 |
| 20260505032014 | 75 | 157 | 0.9 | 6.1 | 0.00 | 0.00 | 0.00 | 76 | 1008.2 |
| 20260505031515 | 75 | 269 | 2.6 | 7.0 | 0.00 | 0.00 | 0.00 | 75 | 1008.1 |
| 20260505031014 | 75 | 152 | 0.9 | 7.0 | 0.00 | 0.00 | 0.00 | 75 | 1008.2 |
| 20260505030514 | 75 | 120 | 4.3 | 6.1 | 0.00 | 0.00 | 0.00 | 75 | 1008.2 |
| 20260505030014 | 75 | 188 | 0.9 | 6.1 | 0.00 | 0.00 | 0.00 | 75 | 1008.3 |
| 20260505025515 | 75 | 244 | 1.7 | 4.3 | 0.00 | 0.00 | 0.00 | 74 | 1008.2 |
| 20260505025014 | 75 | 149 | 1.7 | 7.8 | 0.00 | 0.00 | 0.00 | 74 | 1008.2 |
| 20260505024514 | 76 | 156 | 1.7 | 7.8 | 0.00 | 0.00 | 0.00 | 74 | 1008.2 |
| 20260505024014 | 76 | 152 | 0.9 | 2.6 | 0.00 | 0.00 | 0.00 | 73 | 1008.2 |
| 20260505023514 | 76 | 142 | 0.9 | 4.3 | 0.00 | 0.00 | 0.00 | 73 | 1008.0 |
| 20260505023014 | 76 | 133 | 1.7 | 6.1 | 0.00 | 0.00 | 0.00 | 73 | 1008.0 |
| 20260505022514 | 76 | 269 | 1.7 | 6.1 | 0.00 | 0.00 | 0.00 | 73 | 1008.0 |
| 20260505022014 | 76 | 134 | 1.7 | 4.3 | 0.00 | 0.00 | 0.00 | 73 | 1008.0 |
| 20260505020514 | 77 | 213 | 1.7 | 7.0 | 0.00 | 0.00 | 0.00 | 71 | 1007.9 |
| 20260505020014 | 77 | 181 | 2.6 | 7.0 | 0.00 | 0.00 | 0.00 | 71 | 1007.8 |
| 20260505015514 | 77 | 159 | 1.7 | 4.3 | 0.00 | 0.00 | 0.00 | 71 | 1007.9 |
| 20260505015014 | 77 | 235 | 0.9 | 6.1 | 0.00 | 0.00 | 0.00 | 70 | 1007.7 |
| 20260505014514 | 77 | 134 | 3.5 | 6.1 | 0.00 | 0.00 | 0.00 | 70 | 1007.7 |
| 20260505013514 | 78 | 134 | 0.9 | 5.2 | 0.00 | 0.00 | 0.00 | 69 | 1007.8 |
| 20260505013013 | 78 | 135 | 4.3 | 5.2 | 0.00 | 0.00 | 0.00 | 68 | 1007.7 |
| 20260505012513 | 78 | 120 | 3.5 | 7.8 | 0.00 | 0.00 | 0.00 | 68 | 1007.7 |
| 20260505012013 | 78 | 146 | 2.6 | 7.8 | 0.00 | 0.00 | 0.00 | 68 | 1007.7 |
| 20260505011014 | 79 | 140 | 4.3 | 9.6 | 0.00 | 0.00 | 0.00 | 66 | 1007.5 |
| 20260505010014 | 79 | 234 | 0.9 | 5.2 | 0.00 | 0.00 | 0.00 | 65 | 1007.4 |
| 20260505005513 | 80 | 169 | 5.2 | 5.2 | 0.00 | 0.00 | 0.00 | 65 | 1007.4 |
| 20260505005013 | 80 | 175 | 1.7 | 5.2 | 0.00 | 0.00 | 0.00 | 64 | 1007.4 |
| 20260505004513 | 80 | 215 | 4.3 | 6.1 | 0.00 | 0.00 | 0.00 | 64 | 1007.4 |
| 20260505003513 | 81 | 121 | 3.5 | 6.1 | 0.00 | 0.00 | 0.00 | 62 | 1007.3 |
| 20260505003013 | 81 | 214 | 1.7 | 6.1 | 0.00 | 0.00 | 0.00 | 62 | 1007.3 |
| 20260505002513 | 81 | 291 | 6.1 | 9.6 | 0.00 | 0.00 | 0.00 | 62 | 1007.3 |
| 20260505002013 | 81 | 165 | 1.7 | 9.6 | 0.00 | 0.00 | 0.00 | 61 | 1007.2 |
| 20260505000513 | 82 | 311 | 0.9 | 9.6 | 0.00 | 0.00 | 0.00 | 60 | 1007.6 |
| 20260504235512 | 82 | 272 | 5.2 | 8.7 | 0.00 | 0.00 | 0.00 | 61 | 1007.5 |
| 20260504235012 | 82 | 125 | 7.0 | 8.7 | 0.00 | 0.00 | 0.00 | 61 | 1007.5 |
| 20260504234512 | 82 | 107 | 1.7 | 9.6 | 0.00 | 0.00 | 0.00 | 60 | 1007.6 |
| 20260504234013 | 82 | 145 | 2.6 | 9.6 | 0.00 | 0.00 | 0.00 | 60 | 1007.8 |
| 20260504232512 | 82 | 150 | 2.6 | 6.1 | 0.00 | 0.00 | 0.00 | 60 | 1007.8 |
| 20260504232012 | 82 | 250 | 1.7 | 6.1 | 0.00 | 0.00 | 0.00 | 60 | 1007.8 |
| 20260504231512 | 82 | 198 | 4.3 | 8.7 | 0.00 | 0.00 | 0.00 | 59 | 1007.8 |